Starlink 3853

operational
NORAD ID: 52359 Int'l Des: 2022-045 Owner: SPXS Country: US Constellation: starlink
LEOCIRCULAR

Starlink 3853について

説明を読み込み中...

リアルタイム位置

3D地球を読み込み中...

次回通過

高度履歴

Altitude vs Time

uPlot chart will show altitude changes over time

軌道要素

1 52359U 22045AE 25258.73881728 .00001355 00000-0 10322-3 0 9998
2 52359 53.2149 264.5167 0001081 97.9119 262.1996 15.08839632189375
Epoch: Sep 15, 2025 • Age: 16 hours

現在のステータス

高度 553.1 km
速度 7.58 km/s
衛星直下点 -38.92°S, 88.08°E
打ち上げ日 Apr 29, 2022
運用期間 3.3 years
タイプ internet

技術仕様

分類 Payload
質量 297.00 kg
乾燥質量 275.00 kg
総質量 297.00 kg
長さ 0.20 m
直径 2.80 m
スパン 9.00 m
形状 Box + pan
製造者 SPXS
バスタイプ Starlink
フェーズステータス In Orbit
所有者/国 SPXS/US

大規模コンステレーション

Loading constellations...